Game Fish Hunter Populer

Jackpot

Texas Poker Multi Jackpot System

Kini Telah hadir Jackpot SUPER ROYAL FLUSH

Kini Telah hadir Jackpot 2000 (khusus table VIP keatas).

Ikutilah global jackpot yang tersedia di system kami, dengan system jackpot terbaru dan pertama di indonesia, anda dapat membeli jackpot dengan harga 100 rupiah saja dan menangkan hadiahnya hingga puluhan juta rupiah.

Jackpot bukanlah suatu keharusan untuk dibeli, namun kami memberikan suatu fitur tambahan untuk member tercinta dari www.qqdomino.org.

Terdapat tiga pilihan harga jackpot yang bisa anda beli yaitu :100,500,1000 dan 2000(khusus table VIP Keatas) rupiah.

Hadiah dari Multi jackpot system www.qqdomino.org

  1. full house x 10 harga jackpot yang anda beli.
      (contoh:anda membeli 1000 maka:1000 X10 = 10.000)
  2. four of kind x 250 harga jackpot yang anda beli
      (contoh:anda membeli 1000 maka:1000 X250 = 250.000)
  3. Straight flush x 1200
      (contoh:anda membeli 1000 maka:1000 X1200 = 1.200.000)
  4. Royal flush x 10000 harga jackpot yang anda beli
      (contoh:anda membeli 1000 maka:1000 X10000 = 10.000.000)
  5. SUPER ROYAL FLUSH x 30000 harga jackpot yang anda beli
      (contoh:anda membeli 1000 maka:1000 X30000 = 30.000.000)

Kondisi kartu

  1. full house adalah kondisi kartu dimana kartu anda dan kartu tengah dengan total 7 kartu bisa mendapatkan nilai 5 kartu dengan kombinasi 1 tris(three of kind) dan 1 pair, contoh 3 kartu 10 dan 2 kartu 5
  2. Four of kind adalah kondisi kartu dimana kartu anda dan kartu tengah dengan total 7 kartu bisa mendapatkan nilai 5 kartu dengan kombinasi 4 kartu yang sama jumlah dan 1 kartu apapun juga contoh anda mendapatkan 4 buah kartu angka 3 dan 1 kartu apapun.
  3. Staright flush adalah kondisi kartu dimana kartu anda dan kartu tengah dengan total 7 kartu bisa mendapatkan nilai 5 kartu dengan kombinasi seri / staright dengan kembang yang sama contoh : urutan kartu dari angka 5, 6, 7, 8 , 9 10 dengan kembang yg sama misalnya as hati
  4. Royal flush adalah kondisi kartu dimana kartu anda dan kartu tengah dengan total 7 kartu bisa mendapatkan nilai 5 kartu dengan kombinasi seri / staright dengan kembang yang sama tetapi kartu tersebut haruslah dimulai dari 10. contoh 10, Queen, Jack, King dan aces dengan kembang yang sama
  5. Super Royal flush adalah kondisi kartu dimana Kedua kartu anda digabung dengan 3 kartu pertama meja haruslah royal flush. contoh kartu anda 10,Queen kembang sama dan 3 kartu pertama meja adalah Jack, King dan aces dengan kembang yang sama

Demikian adalah penjelasan dari Multi Jackpot www.qqdomino.org terima kasih dan selamat bermain salam hoki dari kami

Texas Poker Jackpot Winner

TOP SUPER ROYAL FLUSH
No.TanggalNamaPriceWin
117/08 01:56CIKKU999Super Royal flush30,000,000
217/08 01:18RENJOSuper Royal flush30,000,000
316/08 21:47COBAAJA23Super Royal flush3,000,000
416/08 17:30M4ST3R_P0KSuper Royal flush3,000,000
516/08 10:44NGOSSANSuper Royal flush6,000,000
TOP ROYAL FLUSH
No.TanggalNamaPriceWin
117/08 02:06PRAN28Royal flush5,000,000
217/08 02:03HITACHI77Royal flush1,000,000
317/08 01:49MARINIRRRRoyal flush2,000,000
417/08 01:34CIZ428OV66Royal flush2,000,000
517/08 01:24PIYUVOLTUSRoyal flush5,000,000
TOP STRAIGHT FLUSH
No.TanggalNamaPriceWin
117/08 02:23TNT1980Straight Flush120,000
217/08 02:22GAPLEKAZAStraight Flush240,000
317/08 02:21B4194999Straight Flush120,000
417/08 02:21TEMPEL12Straight Flush600,000
517/08 02:19RIS82Straight Flush600,000
LATEST JACKPOT
No.TanggalNamaPriceWin
117/08 02:23JP9UZ5H9FUFull House10,000
217/08 02:23BENBEN9Full House1,000
317/08 02:23LIGA99Full House2,000
417/08 02:23KUTI6666Full House20,000
517/08 02:23DULLOHSPRFFour Of A Kind500,000
617/08 02:23GEBOEL666Full House500
717/08 02:23MONK97Full House5,000
817/08 02:23MORKING46Full House2,000
917/08 02:23VOLTIMOREFull House5,000
1017/08 02:23MERLIN09Full House500
1117/08 02:23KHP0L51WMXFull House1,000
1217/08 02:23AP_49Full House1,000
1317/08 02:23KOI025Full House1,000
1417/08 02:23SEND90Full House2,000
1517/08 02:23I6VI976U0JFour Of A Kind500,000
1617/08 02:23JOROK55Full House5,000
1717/08 02:23MADU0Full House2,000
1817/08 02:23QEENAN88Full House10,000
1917/08 02:23NADILA06Full House500
2017/08 02:23MTRHT09Full House2,000
2117/08 02:23BB5E74D6Full House1,000
2217/08 02:23MUN6KINFull House5,000
2317/08 02:23KILO999Full House5,000
2417/08 02:23DJOKER151Full House10,000
2517/08 02:23RABBIT89Full House20,000
2617/08 02:23TOLE74Full House2,000
2717/08 02:23WISKEFull House5,000
2817/08 02:23DARTO18Full House20,000
2917/08 02:23HELLOJP07Full House1,000
3017/08 02:23PAMELAMMEKFull House500
3117/08 02:23S4R4GIHFull House20,000
3217/08 02:23MEGALOMAN5Full House10,000
3317/08 02:23IHANZZ99Four Of A Kind25,000
3417/08 02:23VERANDA48Full House5,000
3517/08 02:23AAJONO2Full House1,000
3617/08 02:23ANTBEFull House10,000
3717/08 02:23HEUEUHKITUFull House5,000
3817/08 02:23ANTO1974Full House20,000
3917/08 02:23K4MPAK44Full House5,000
4017/08 02:23EZHA1945Full House2,000
4117/08 02:23HEARM0NYFull House2,000
4217/08 02:23UUN4YDJV41Full House5,000
4317/08 02:23UNJATANUFull House10,000
4417/08 02:23MP1910Four Of A Kind25,000
4517/08 02:23CLUBLEONFull House1,000
4617/08 02:23UVOQUAFull House2,000
4717/08 02:23AGUYS_CBNFull House2,000
4817/08 02:23BABIKEKFull House1,000
4917/08 02:23FAHAD275Full House500
5017/08 02:23HAGAPU01Full House2,000

Domino Multi Jackpot System

Ikutilah global jackpot yang tersedia di system kami, dengan system jackpot terbaru dan pertama di indonesia, anda dapat membeli jackpot dengan harga 100 rupiah saja dan menangkan hadiahnya hingga puluhan juta rupiah.

Jackpot bukanlah suatu keharusan untuk dibeli, namun kami memberikan suatu fitur tambahan untuk member tercinta dari www.qqdomino.org.

Terdapat tiga pilihan harga jackpot yang bisa anda beli yaitu :100,500 dan 1000 rupiah.

Hadiah dari Multi jackpot system www.qqdomino.org

  1. Murni Kecil x 50 harga jackpot yang anda beli.
      (contoh:anda membeli 1000 maka:1000 X 50 = 50.000)
  2. Murni Besar x 50 harga jackpot yang anda beli
      (contoh:anda membeli 1000 maka:1000 X 50 = 50.000)
  3. BALAK x 100 harga jackpot yang anda beli
      (contoh:anda membeli 1000 maka:1000 X 100 = 100.000)
  4. ENAM DEWA x 6666 harga jackpot yang anda beli
      (contoh:anda membeli 1000 maka:1000 X 6666 = 6.666.000)

Demikian adalah penjelasan dari Multi Jackpot www.qqdomino.org terima kasih dan selamat bermain salam hoki dari kami

Domino Jackpot Winner

TOP ENAM DEWA
No.TanggalNamaPriceWin
117/08 01:47DAD08F35murni enam3,333,000
217/08 01:45TUNAI007murni enam3,333,000
317/08 00:43NGAPUNGGmurni enam3,333,000
416/08 23:04HANDTWOmurni enam6,666,000
516/08 21:36GENIT99murni enam666,600
TOP BALAK
No.TanggalNamaPriceWin
117/08 02:21KENCUT21balak50,000
217/08 02:12KBYD124balak10,000
317/08 02:10SEPATU22balak100,000
417/08 02:10RAJAJEN09balak50,000
517/08 02:09CAHAYA8282balak100,000
LATEST JACKPOT
No.TanggalNamaPriceWin
117/08 02:22S14P_805murni besar5,000
217/08 02:22RAJAJEN09murni besar25,000
317/08 02:22GENDULAKmurni besar50,000
417/08 02:22BONG99Qmurni kecil25,000
517/08 02:21ADILIA17murni kecil5,000
617/08 02:21KENCUT21balak50,000
717/08 02:21BAWING12murni kecil50,000
817/08 02:21DIRGA1987murni besar50,000
917/08 02:20VOLUME66murni besar25,000
1017/08 02:20AYUNA4ANmurni kecil25,000
1117/08 02:19YADAH88murni besar50,000
1217/08 02:19SEPATU22murni besar50,000
1317/08 02:18GASPOL8989murni kecil25,000
1417/08 02:16ELONG322murni besar25,000
1517/08 02:15PUHUT33murni besar50,000
1617/08 02:15LIZARDCOYmurni kecil25,000
1717/08 02:15MEIDYTA88murni kecil50,000
1817/08 02:15UWINISA919murni besar5,000
1917/08 02:14ZXCV9090murni besar25,000
2017/08 02:14ERIKMOR5murni kecil25,000
2117/08 02:14FISA234murni kecil50,000
2217/08 02:14AYUNA4ANmurni kecil25,000
2317/08 02:14COMP07murni kecil5,000
2417/08 02:13MENU45murni besar25,000
2517/08 02:13WDW9murni kecil5,000
2617/08 02:13BIJII87murni kecil25,000
2717/08 02:12J3RIB3Tmurni kecil50,000
2817/08 02:12IDR1S99murni kecil25,000
2917/08 02:12KBYD124balak10,000
3017/08 02:11PAIMAN54murni besar25,000
3117/08 02:11TINGGI63murni besar50,000
3217/08 02:10SEPATU22balak100,000
3317/08 02:10BG7412WO98murni besar5,000
3417/08 02:10RAJAJEN09balak50,000
3517/08 02:09CAHAYA8282balak100,000
3617/08 02:09BERJET89murni kecil50,000
3717/08 02:09BIAWAK168murni besar25,000
3817/08 02:08HAPPY_39murni besar5,000
3917/08 02:08KAKEKU01murni besar50,000
4017/08 02:08ALIE80murni besar50,000
4117/08 02:07WIRO7979murni besar50,000
4217/08 02:07J3RIB3Tmurni kecil50,000
4317/08 02:07RRVTD3CEUBmurni kecil50,000
4417/08 02:05RARASASAmurni kecil25,000
4517/08 02:04A5SIPmurni besar50,000
4617/08 02:04CHOY_ONmurni besar50,000
4717/08 02:03MAOK5murni kecil50,000
4817/08 02:03ANCU7781murni besar25,000
4917/08 02:03SERIA99murni besar25,000
5017/08 02:03GG1309balak100,000

Ceme Multi Jackpot System

Jackpot dilihat dari gabungan kartu pemain dengan kartu bandar. Bandar harus membeli jackpot sebanyak jumlah player yang sedang duduk. Sebagai contoh bila terdapat 3 pemain duduk bermain, dan bandar memutuskan untuk membeli jackpot Rp 1.000, maka pada periode tersebut bandar akan membeli jackpot sebanyak 3xRp1.000 = Rp3.000.

Jackpot bukanlah suatu keharusan untuk dibeli, namun kami memberikan suatu fitur tambahan untuk member tercinta dari www.qqdomino.org.

Terdapat tiga pilihan harga jackpot yang bisa anda beli yaitu :100,500 dan 1000 rupiah.

Hadiah dari Multi jackpot system www.qqdomino.org

  1. Murni Kecil x 50 harga jackpot yang anda beli.
      (contoh:anda membeli 1000 maka:1000 X 50 = 50.000)
  2. Murni Besar x 50 harga jackpot yang anda beli
      (contoh:anda membeli 1000 maka:1000 X 50 = 50.000)
  3. BALAK x 200 harga jackpot yang anda beli
      (contoh:anda membeli 1000 maka:1000 X 200 = 200.000)
  4. ENAM DEWA x 6666 harga jackpot yang anda beli
      (contoh:anda membeli 1000 maka:1000 X 6666 = 6.666.000)

Demikian adalah penjelasan dari Multi Jackpot www.qqdomino.org terima kasih dan selamat bermain salam hoki dari kami

Ceme Jackpot Winner

TOP ENAM DEWA
No.TanggalNamaPriceWin
117/08 02:01UNCONG99murni enam3,333,000
217/08 00:30LISTYO3566murni enam6,666,000
317/08 00:29SAKAA1219murni enam3,333,000
417/08 00:26IBENK_31murni enam666,600
517/08 00:01JOKER59murni enam6,666,000
TOP BALAK
No.TanggalNamaPriceWin
117/08 02:23CELUR4J4balak100,000
217/08 02:23RIKISSSbalak20,000
317/08 02:23BGJALI45balak20,000
417/08 02:22CUM11balak200,000
517/08 02:22ASEPBE88balak100,000
LATEST JACKPOT
No.TanggalNamaPriceWin
117/08 02:23CELUR4J4balak100,000
217/08 02:23RIKISSSbalak20,000
317/08 02:23LISTYO3566murni kecil50,000
417/08 02:23KODIR56murni besar50,000
517/08 02:23XX58SXL28Zmurni besar25,000
617/08 02:23KODIR56murni besar50,000
717/08 02:23ICELAU3299murni besar50,000
817/08 02:23BGJALI45balak20,000
917/08 02:23NUYSP400murni kecil50,000
1017/08 02:23IQBAL695murni besar50,000
1117/08 02:22TONGKAR88murni kecil5,000
1217/08 02:22ICELAU3299murni kecil50,000
1317/08 02:22WJWJWJWJmurni kecil50,000
1417/08 02:22MTBHMTT3CPmurni kecil5,000
1517/08 02:22R7DCZKLPSTmurni kecil5,000
1617/08 02:22CUM11balak200,000
1717/08 02:22ASEPBE88balak100,000
1817/08 02:22KOJAI80murni besar50,000
1917/08 02:22ARTHENDRIKmurni besar50,000
2017/08 02:22BOGEL67murni kecil25,000
2117/08 02:22AAJMAAAA66murni besar50,000
2217/08 02:22KAMRANI2murni besar50,000
2317/08 02:22TELIN979murni kecil50,000
2417/08 02:22A5SIPmurni besar50,000
2517/08 02:22QIUHTUH12murni besar50,000
2617/08 02:22ASEK9murni besar50,000
2717/08 02:21RAISA93balak200,000
2817/08 02:21WFH3N9balak200,000
2917/08 02:21MTBHMTT3CPmurni kecil25,000
3017/08 02:21DUNI178murni besar50,000
3117/08 02:21VURVWTZOJYbalak200,000
3217/08 02:21M3R1Nmurni kecil50,000
3317/08 02:21JEMBING2balak20,000
3417/08 02:21DUNI178murni besar50,000
3517/08 02:20SUNUTRIBmurni besar25,000
3617/08 02:20RUGY22murni besar5,000
3717/08 02:20HOKILHmurni kecil50,000
3817/08 02:20KOJAI80murni besar50,000
3917/08 02:20MORHEIM259murni besar50,000
4017/08 02:20SLATANbalak200,000
4117/08 02:20MORANK14balak20,000
4217/08 02:20GENERASI56balak200,000
4317/08 02:20FRANSISC88balak200,000
4417/08 02:20BABYHIPHOPmurni kecil50,000
4517/08 02:20CELUR4J4balak100,000
4617/08 02:20ROBY122balak20,000
4717/08 02:20CELUR4J4balak100,000
4817/08 02:20SINOX699balak20,000
4917/08 02:20HENDRA08STmurni besar25,000
5017/08 02:20PLAYER71murni besar5,000